Regional Weather Roundup
Issued by NWS Little Rock, AR

Home | Current Version | Previous Version | Graphics & Text | Print | Product List | Glossary On
Versions: 1 2 3 4 5 6 7 8 9 10 11 12 13 14 15 16 17 18 19 20 21 22 23 24 25 26 27 28 29 30 31 32 33 34 35 36 37 38 39 40 41 42 43 44 45 46 47 48 49 50
000
ASUS44 KLZK 241005
RWRLZK

WEATHER ROUNDUP FOR ARKANSAS
NATIONAL WEATHER SERVICE LITTLE ROCK AR
400 AM CST MON NOV 24 2014

NOTE: "FAIR" INDICATES FEW OR NO CLOUDS BELOW 12,000 FEET WITH NO
SIGNIFICANT WEATHER AND/OR OBSTRUCTIONS TO VISIBILITY.

ARZ001-003-010-029-241100-
NORTHWEST ARKANSAS

CITY           SKY/WX    TMP DP  RH WIND       PRES   REMARKS
FAYETTEVILLE   CLEAR     38  36  92 W13       29.74R
FORT SMITH     CLEAR     44  37  76 W16       29.78R
HARRISON       CLEAR     39  34  82 W9G21     29.64R
BENTONVILLE    CLEAR     39  34  81 W13       29.72R
ROGERS         PTCLDY    38  34  85 W15       29.71R
SILOAM SPGS    CLEAR     37  30  75 W12       29.75R
HIGHFILL       CLEAR     39  32  76 W13       29.71R
$$

ARZ004-005-016-241100-
NORTH CENTRAL ARKANSAS

CITY           SKY/WX    TMP DP  RH WIND       PRES   REMARKS
BATESVILLE     MOCLDY    46  37  71 W14G26    29.60R
FLIPPIN        PTCLDY    43  32  65 W12G18    29.63R
MTN HOME       PTCLDY    42  35  76 VRB5      29.60R
$$

ARZ040-041-241100-
WEST CENTRAL ARKANSAS

CITY           SKY/WX    TMP DP  RH WIND       PRES   REMARKS
MENA           CLEAR     45  36  70 W10       29.79R
MOUNT IDA      PTCLDY    46  35  65 VRB7G20   29.75R
$$

ARZ009-017-025-026-028-241100-
NORTHEAST ARKANSAS

CITY           SKY/WX    TMP DP  RH WIND       PRES   REMARKS
CORNING        CLOUDY    48  41  76 W22G35    29.51R
JONESBORO      CLOUDY    50  42  74 W26G37    29.55R
NEWPORT        MOCLDY    49  41  74 W9G23     29.60R
WALNUT RIDGE   PTCLDY    48  37  66 W16G30    29.52R
BLYTHEVILLE    CLOUDY    58  46  64 W24G35    29.51R
$$

ARZ022-023-033-042-044-241100-
CENTRAL ARKANSAS

CITY           SKY/WX    TMP DP  RH WIND       PRES   REMARKS
LITTLE ROCK    MOCLDY    50  39  66 W16G25    29.70R
N LITTLE ROCK    N/A     48  42  80 W9G18     29.70R
JACKSONVILLE   MOCLDY    49  41  74 W13G22    29.68R
SEARCY         CLEAR     49  39  68 VRB7G16   29.66R
HOT SPRINGS    CLOUDY    49  38  65 VRB7G21   29.75R
RUSSELLVILLE   PTCLDY    47  35  63 W13G21    29.72R
CLINTON        MOCLDY    46  36  66 W8G17     29.69R
$$

ARZ036-241100-
EAST ARKANSAS

CITY           SKY/WX    TMP DP  RH WIND       PRES   REMARKS
WEST MEMPHIS   CLOUDY    56  48  74 W9G21     29.56R
$$

ARZ050-053-066-070-073-241100-
SOUTHWEST ARKANSAS

CITY           SKY/WX    TMP DP  RH WIND       PRES   REMARKS
ARKADELPHIA    PTSUNNY   50  42  73 W8        29.77R
CAMDEN         CLOUDY    50  39  66 E9G17     29.76R
TEXARKANA      PTCLDY    49  38  65 NW16G23   29.83R
EL DORADO      PTCLDY    51  40  65 W15G24    29.78R
DE QUEEN       CLEAR     44  36  73 W7        29.82R
$$

ARZ056-057-069-241100-
SOUTHEAST ARKANSAS

CITY           SKY/WX    TMP DP  RH WIND       PRES   REMARKS
PINE BLUFF     CLOUDY    52  40  63 W14G28    29.71R
STUTTGART      CLOUDY    52  43  71 W20       29.68R
MONTICELLO     LGT RAIN  54  45  71 W14G24    29.70R

$$





USA.gov is the U.S. government's official web portal to all federal, state and local government web resources and services.